Torna al catalogo

FENGYUN 1C DEB

AttivoPO
NORAD 31169·DEBRIS·🇨🇳 China

Lanciato May 10, 1999 da Taiyuan Satellite Launch Center

Loading…

Prossimi Passaggi (prossime 24 ore)

TLE

AggiornatoSource: Space-Track

Epoca: Sep 14, 2026, 13:27 UTC

1 31169U 99025BHX 26257.56041978  .00002543  00000-0  10135-2 0  9993
2 31169  99.1386 301.7783 0054740 303.0020  56.5906 14.28710086610404

Traccia FENGYUN 1C DEB in tempo reale con AllMySat

Download on the App Store